Location: Ambrosina
(19.9365°S, 43.9833°W)
Time: 09:09:04
(UTC+00:00)

Palapa 6 Rocket - Pass Details

Date: 11 May 2021
Orbit: 484 x 1216 km, 22.7° (Epoch: 22 June)

Event Time Altitude Azimuth Distance (km) Brightness Sun altitude
Rises 22:24:01 0° 300° (WNW) 3,754 8.2 -27.0°
Reaches altitude 10° 22:27:03 10° 305° (NW) 2,687 7.1 -27.7°
Enters shadow 22:32:43 46° 1° (N) 1,105 4.3 -29.0°
